Regional Weather Roundup
Issued by NWS Kansas City/Pleasant Hill, MO

Home | Current Version | Previous Version | Text Only | Print | Product List | Glossary On
Versions: 1 2 3 4 5 6 7 8 9 10 11 12 13 14 15 16 17 18 19 20 21 22 23 24 25 26 27 28 29 30 31 32 33 34 35 36 37 38 39 40 41 42 43 44 45 46 47 48 49 50
000
ASUS43 KEAX 040910
RWREAX

WEATHER ROUNDUP FOR EASTERN KANSAS AND NORTHWEST MISSOURI
NATIONAL WEATHER SERVICE KANSAS CITY/PLEASANT HILL MO
400 AM CDT MON MAY 04 2015

KSZ040-057-103>105-MOZ028-029-037-043-041000-
...KANSAS CITY METROPOLITAN AREA...

CITY           SKY/WX    TMP DP  RH WIND       PRES   REMARKS
K.C. INTL      CLOUDY    68  55  63 SW10      29.94R
K.C. DOWNTOWN  CLOUDY    69  55  60 S8        29.94R
LEES SUMMIT    MOCLDY    66  55  67 S6        29.96R
OLATHE - IXD   MOCLDY    67  55  65 S10       29.95R
OLATHE - OJC   MOCLDY    65  56  72 S6        29.95R
LAWRENCE       PTCLDY    66  54  65 S6        29.93R

$$

MOZ001>008-011>017-020>025-030>033-038>040-044>046-053-054-041000-
...NORTHERN AND CENTRAL MISSOURI...

CITY           SKY/WX    TMP DP  RH WIND       PRES   REMARKS
ST. JOSEPH     CLOUDY    68  59  73 CALM      29.97F
MOSBY          CLOUDY    70  55  60 S3        29.96R
WARRENSBURG    MOCLDY    61  55  82 S6        29.98R
WHITEMAN AFB   MOCLDY    60  56  88 S9        29.97R
CLINTON        MOCLDY    64  57  77 SW5       30.00R
SEDALIA        MOCLDY    64  56  75 S8        30.00R
WARSAW         NOT AVBL
CHILLICOTHE      N/A     67  57  70 S7        29.95S
MOBERLY        CLOUDY    66  54  63 SW10      29.99R
KIRKSVILLE     CLOUDY    68  58  70 SW9       29.95R

$$

MOZ041-047>049-056>058-063>065-088>090-097-041000-
...EASTERN AND SOUTHERN MISSOURI...

CITY           SKY/WX    TMP DP  RH WIND       PRES   REMARKS
ST. LOUIS INTL CLOUDY    72  54  53 SW12      30.01R
SPIRIT OF STL  CLOUDY    70  55  59 CALM      29.99R
COLUMBIA       CLOUDY    62  55  77 S6        30.00R
JEFFERSON CITY CLOUDY    68  55  63 CALM      30.00R
MEXICO         CLOUDY    66  59  77 SW8       29.99R
HANNIBAL       CLOUDY    66  52  59 S7        29.97R
ROLLA          CLOUDY    64  55  72 SW9       30.00S
LEBANON        CLOUDY    64  55  72 CALM      30.05R
OSAGE BEACH    MOCLDY    64  54  68 S5        30.02R
SPRINGFIELD    LGT RAIN  64  55  72 S12       30.02R
BRANSON        MOCLDY    64  55  72 CALM      30.06R
NEVADA         MOCLDY    63  55  77 S9        29.99S
JOPLIN         CLOUDY    66  54  65 S14       30.00F
WEST PLAINS    PTCLDY    62  54  74 SW3       30.07R

$$

IAZ060-094-KSZ022-034>040-054-083-096-NEZ052-066-093-041000-
...KANSAS...SOUTHEAST NEBRASKA AND IOWA...

CITY           SKY/WX    TMP DP  RH WIND       PRES   REMARKS
TOPEKA         PTCLDY    67  54  63 SE6       29.91R
MANHATTAN      MOCLDY    66  55  67 SW13      29.86R
EMPORIA        MOCLDY    63  54  72 S16G22    29.92R
CHANUTE        MOCLDY    63  56  78 S12       29.96F
WICHITA        MOCLDY    62  53  72 S10       29.94S
OMAHA          CLOUDY    61  54  77 NE7       29.92F
LINCOLN        CLOUDY    61  54  77 NE8       29.94S
FALLS CITY     CLOUDY    65  55  70 SE13      29.90F
LAMONI         CLOUDY    67  60  78 SW14G20   29.92R
DES MOINES     CLOUDY    64  54  69 E10       29.92R

$$



USA.gov is the U.S. government's official web portal to all federal, state and local government web resources and services.